Regional Weather Roundup
Issued by NWS

Home | Current Version | Previous Version | Text Only | Print | Product List | Glossary On
Versions: 1 2 3 4 5 6 7 8 9 10 11 12 13 14 15 16 17 18 19 20 21 22 23 24 25 26 27 28 29 30 31 32 33 34 35 36 37 38 39 40 41 42 43 44 45 46 47 48 49 50
000
ASUS45 KABQ 261310
RWRNM
NEW MEXICO REGIONAL WEATHER ROUNDUP
NATIONAL WEATHER SERVICE ALBUQUERQUE NM
700 AM MDT SUN MAR 26 2017

NOTE: "FAIR" MEANS FEW OR NO CLOUDS BELOW 12,000 FEET AGL WITH NO
       SIGNIFICANT WEATHER OR OBSTRUCTIONS TO VISION.

      THIS PRODUCT IS RELEASED AS TWO VERSIONS.  ONE VERSION NEAR
      THE TOP OF THE HOUR CONTAINING PRELIMINARY DATA FROM ALBUQUERQUE
      AND OTHER STATIONS.  A FINAL VERSION WITH ADDITIONAL DATA IS
      ISSUED ABOUT 10 MINUTES AFTER THE HOUR.

NMZ501-503-504-510>518-261400-
NORTHWEST PLATEAU/NORTHCENTRAL MOUNTAINS

CITY           SKY/WX    TMP DP  RH WIND       PRES   REMARKS
FARMINGTON     FAIR      36  36 100 W5        29.91R WCI  32
LOS ALAMOS     CLOUDY    38  30  74 NE5       29.92R WCI  34
SANTA FE       FAIR      37  31  78 CALM      29.90R
TAOS             N/A     36  27  69 SW13      29.88S WCI  27
ANGEL FIRE     LGT SNOW  32  28  86 SW15G21   29.86S WCI  22

$$
NMZ402-403-502-505>509-261400-
WESTCENTRAL MOUNTAINS/SOUTHWEST MOUNTAINS

CITY           SKY/WX    TMP DP  RH WIND       PRES   REMARKS
GALLUP         FAIR      30  28  92 S3        29.97R
GRANTS         FAIR      31  27  83 NW3       29.97R
SILVER CITY    FAIR      31  24  73 N8        29.97R WCI  24

$$
NMZ407-409-411-412-261400-
SOUTHERN DESERTS

CITY           SKY/WX    TMP DP  RH WIND       PRES   REMARKS
DEMING         FAIR      40  26  57 SW5       29.96R
LAS CRUCES     FAIR      47  26  43 W9        29.95S
HOLLOMAN AFB   FAIR      45  22  40 NE10      29.93R
ALAMOGORDO     FAIR      50  21  32 NE10      29.91S
T OR C         FAIR      45  23  42 N6        29.94R

$$
NMZ519>523-261400-
CENTRAL VALLEYS/CENTRAL HIGHLANDS

CITY           SKY/WX    TMP DP  RH WIND       PRES   REMARKS
ALBUQUERQUE    FAIR      38  27  64 E7        29.92R WCI  33
DOUBLE EAGLE   PTCLDY    34  27  75 SW7       29.92R WCI  28
MORIARTY ARPT  FAIR      37  29  74 W6        29.91S WCI  32
CLINES CORNERS FAIR      30  24  78 NW13      29.90S WCI  20
BELEN          FAIR      40  27  59 SW8       29.93S WCI  34
SOCORRO        FAIR      42  27  55 CALM      29.94R

$$
NMZ524>526-539-540-261400-
SOUTHCENTRAL MOUNTAINS

CITY           SKY/WX    TMP DP  RH WIND       PRES   REMARKS
RUIDOSO        FAIR      43  16  33 W20G30    29.93S

$$
NMZ527>531-261400-
NORTHEAST HIGHLANDS/NORTHEAST PLAINS

CITY           SKY/WX    TMP DP  RH WIND       PRES   REMARKS
LAS VEGAS      FAIR      39  23  52 W17       29.79F WCI  30
RATON          FAIR      34  28  79 N7        29.74R WCI  28
CLAYTON        FAIR      41  32  70 W9        29.69S

$$
NMZ532>537-261400-
EASTCENTRAL PLAINS

CITY           SKY/WX    TMP DP  RH WIND       PRES   REMARKS
TUCUMCARI      FAIR      53  30  41 W23       29.73R
CANNON AFB     FAIR      46  28  48 SW7       29.80S
CLOVIS AIRPORT FAIR      46  27  46 SW8       29.80S

$$
NMZ028-029-538-261400-
SOUTHEAST PLAINS

CITY           SKY/WX    TMP DP  RH WIND       PRES   REMARKS
ROSWELL        FAIR      54  26  34 NW12        N/A
ARTESIA        FAIR      48  27  43 NE5       29.85R
CARLSBAD       FAIR      54  27  35 W6        29.84R
HOBBS          CLEAR     50  27  40 NW6       29.86R


$$



USA.gov is the U.S. government's official web portal to all federal, state and local government web resources and services.